| time (UTC) | temp C | wind direction | speed KPH | gust KPH | rain 1hr cm | rain 24hr cm | rain mn cm | humidity % | barometer mb |
| 20260504195028 | 21 | 166 | 6.4 | 22.5 | 0.00 | 0.00 | 0.00 | 39 | 1010.3 |
| 20260504194536 | 21 | 26 | 4.8 | 19.3 | 0.00 | 0.00 | 0.00 | 40 | 1010.3 |
| 20260504194048 | 21 | 216 | 8.0 | 19.3 | 0.00 | 0.00 | 0.00 | 39 | 1010.4 |
| 20260504193559 | 21 | 135 | 3.2 | 17.7 | 0.00 | 0.00 | 0.00 | 41 | 1010.4 |
| 20260504193512 | 21 | 248 | 3.2 | 17.7 | 0.00 | 0.00 | 0.00 | 41 | 1010.4 |
| 20260504193016 | 21 | 199 | 8.0 | 17.7 | 0.00 | 0.00 | 0.00 | 40 | 1010.4 |
| 20260504192529 | 21 | 126 | 6.4 | 19.3 | 0.00 | 0.00 | 0.00 | 39 | 1010.4 |
| 20260504192041 | 21 | 226 | 4.8 | 17.7 | 0.00 | 0.00 | 0.00 | 40 | 1010.4 |
| 20260504191554 | 21 | 174 | 3.2 | 20.9 | 0.00 | 0.00 | 0.00 | 41 | 1010.4 |
| 20260504191056 | 21 | 256 | 4.8 | 20.9 | 0.00 | 0.00 | 0.00 | 40 | 1010.5 |
| 20260504190502 | 21 | 218 | 4.8 | 22.5 | 0.00 | 0.00 | 0.00 | 40 | 1010.5 |
| 20260504190002 | 21 | 147 | 6.4 | 16.1 | 0.00 | 0.00 | 0.00 | 40 | 1010.5 |
| 20260504185509 | 21 | 168 | 3.2 | 22.5 | 0.00 | 0.00 | 0.00 | 41 | 1010.6 |
| 20260504185012 | 21 | 207 | 8.0 | 19.3 | 0.00 | 0.00 | 0.00 | 39 | 1010.7 |
| 20260504184520 | 21 | 156 | 4.8 | 24.1 | 0.00 | 0.00 | 0.00 | 41 | 1010.6 |
| 20260504184022 | 20 | 155 | 3.2 | 20.9 | 0.00 | 0.00 | 0.00 | 41 | 1010.7 |
| 20260504183530 | 21 | 195 | 4.8 | 22.5 | 0.00 | 0.00 | 0.00 | 40 | 1010.8 |
| 20260504183038 | 20 | 220 | 4.8 | 22.5 | 0.00 | 0.00 | 0.00 | 41 | 1010.9 |
| 20260504182549 | 20 | 183 | 6.4 | 20.9 | 0.00 | 0.00 | 0.00 | 40 | 1011.0 |
| 20260504182057 | 20 | 203 | 6.4 | 22.5 | 0.00 | 0.00 | 0.00 | 41 | 1011.1 |
| 20260504181512 | 20 | 182 | 6.4 | 22.5 | 0.00 | 0.00 | 0.00 | 39 | 1011.0 |
| 20260504181020 | 20 | 152 | 6.4 | 24.1 | 0.00 | 0.00 | 0.00 | 39 | 1011.1 |
| 20260504180533 | 20 | 214 | 11.3 | 24.1 | 0.00 | 0.00 | 0.00 | 38 | 1011.2 |
| 20260504180038 | 20 | 213 | 6.4 | 20.9 | 0.00 | 0.00 | 0.00 | 40 | 1011.2 |
| 20260504175552 | 19 | 212 | 6.4 | 20.9 | 0.00 | 0.00 | 0.00 | 39 | 1011.3 |
| 20260504175058 | 19 | 295 | 11.3 | 20.9 | 0.00 | 0.00 | 0.00 | 39 | 1011.3 |
| 20260504174510 | 18 | 306 | 9.7 | 27.4 | 0.00 | 0.00 | 0.00 | 40 | 1011.4 |
| 20260504174016 | 18 | 216 | 9.7 | 27.4 | 0.00 | 0.00 | 0.00 | 40 | 1011.4 |
| 20260504173528 | 18 | 203 | 9.7 | 27.4 | 0.00 | 0.00 | 0.00 | 41 | 1011.5 |
| 20260504173028 | 18 | 223 | 8.0 | 20.9 | 0.00 | 0.00 | 0.00 | 41 | 1011.5 |
| 20260504172534 | 18 | 224 | 9.7 | 30.6 | 0.00 | 0.00 | 0.00 | 41 | 1011.5 |
| 20260504172034 | 18 | 233 | 11.3 | 30.6 | 0.00 | 0.00 | 0.00 | 40 | 1011.6 |
| 20260504171540 | 17 | 224 | 9.7 | 25.7 | 0.00 | 0.00 | 0.00 | 41 | 1011.5 |
| 20260504171042 | 17 | 196 | 9.7 | 32.2 | 0.00 | 0.00 | 0.00 | 41 | 1011.7 |
| 20260504170546 | 17 | 237 | 9.7 | 32.2 | 0.00 | 0.00 | 0.00 | 41 | 1011.5 |
| 20260504151014 | 16 | 340 | 16.1 | 30.6 | 0.00 | 0.00 | 0.00 | 44 | 1012.9 |
| 20260504150508 | 15 | 340 | 14.5 | 33.8 | 0.00 | 0.00 | 0.00 | 44 | 1013.0 |
| 20260504141047 | 14 | 340 | 9.7 | 20.9 | 0.00 | 0.00 | 0.00 | 50 | 1013.4 |
| 20260504140549 | 13 | 340 | 9.7 | 22.5 | 0.00 | 0.00 | 0.00 | 51 | 1013.4 |
| 20260504130511 | 12 | 340 | 4.8 | 22.5 | 0.00 | 0.00 | 0.00 | 55 | 1013.6 |
| 20260504110549 | 8 | 252 | 3.2 | 9.7 | 0.00 | 0.00 | 0.00 | 58 | 1013.8 |
| 20260504100522 | 7 | 239 | 1.6 | 4.8 | 0.00 | 0.00 | 0.00 | 62 | 1013.4 |
| 20260504081534 | 6 | 223 | 0.0 | 4.8 | 0.00 | 0.00 | 0.00 | 64 | 1012.7 |
| 20260504081039 | 6 | 223 | 1.6 | 4.8 | 0.00 | 0.00 | 0.00 | 64 | 1012.8 |
| 20260504080539 | 6 | 221 | 0.0 | 0.0 | 0.00 | 0.00 | 0.00 | 64 | 1012.7 |
| 20260504050555 | 6 | 247 | 0.0 | 0.0 | 0.00 | 0.00 | 0.00 | 62 | 1012.3 |
| 20260504050508 | 6 | 247 | 0.0 | 0.0 | 0.00 | 0.00 | 0.00 | 61 | 1012.3 |
| 20260504050009 | 6 | 247 | 0.0 | 3.2 | 0.00 | 0.00 | 0.00 | 61 | 1012.4 |
| 20260504045520 | 6 | 247 | 1.6 | 3.2 | 0.00 | 0.00 | 0.00 | 60 | 1012.4 |
| 20260504045021 | 6 | 247 | 0.0 | 0.0 | 0.00 | 0.00 | 0.00 | 59 | 1012.4 |
| 20260504044532 | 6 | 247 | 0.0 | 0.0 | 0.00 | 0.00 | 0.00 | 59 | 1012.4 |
| 20260504044032 | 6 | 247 | 0.0 | 0.0 | 0.00 | 0.00 | 0.00 | 60 | 1012.3 |
| 20260504043540 | 6 | 247 | 0.0 | 0.0 | 0.00 | 0.00 | 0.00 | 60 | 1012.4 |
| 20260504043040 | 7 | 247 | 0.0 | 0.0 | 0.00 | 0.00 | 0.00 | 59 | 1012.5 |
| 20260504042554 | 7 | 247 | 0.0 | 3.2 | 0.00 | 0.00 | 0.00 | 59 | 1012.4 |
| 20260504042058 | 7 | 247 | 0.0 | 3.2 | 0.00 | 0.00 | 0.00 | 58 | 1012.5 |
| 20260504041514 | 7 | 248 | 0.0 | 3.2 | 0.00 | 0.00 | 0.00 | 56 | 1012.5 |
| 20260504041018 | 7 | 248 | 0.0 | 0.0 | 0.00 | 0.00 | 0.00 | 55 | 1012.3 |
| 20260504040532 | 7 | 248 | 0.0 | 0.0 | 0.00 | 0.00 | 0.00 | 55 | 1012.2 |
| 20260504040043 | 7 | 248 | 0.0 | 0.0 | 0.00 | 0.00 | 0.00 | 56 | 1012.3 |
| 20260504035550 | 7 | 248 | 0.0 | 4.8 | 0.00 | 0.00 | 0.00 | 56 | 1012.3 |
| 20260504035010 | 8 | 248 | 0.0 | 4.8 | 0.00 | 0.00 | 0.00 | 52 | 1012.3 |
| 20260504034511 | 8 | 248 | 0.0 | 0.0 | 0.00 | 0.00 | 0.00 | 51 | 1012.2 |
| 20260504034028 | 8 | 340 | 0.0 | 0.0 | 0.00 | 0.00 | 0.00 | 51 | 1012.2 |
| 20260504033530 | 8 | 340 | 0.0 | 0.0 | 0.00 | 0.00 | 0.00 | 51 | 1012.2 |
| 20260504033042 | 8 | 340 | 0.0 | 0.0 | 0.00 | 0.00 | 0.00 | 50 | 1012.2 |
| 20260504032553 | 8 | 249 | 0.0 | 0.0 | 0.00 | 0.00 | 0.00 | 49 | 1012.2 |
| 20260504032003 | 8 | 249 | 0.0 | 0.0 | 0.00 | 0.00 | 0.00 | 48 | 1012.3 |
| 20260504031509 | 8 | 249 | 0.0 | 0.0 | 0.00 | 0.00 | 0.00 | 47 | 1012.3 |
| 20260504031022 | 8 | 249 | 0.0 | 0.0 | 0.00 | 0.00 | 0.00 | 47 | 1012.1 |
| 20260504030526 | 9 | 249 | 0.0 | 0.0 | 0.00 | 0.00 | 0.00 | 46 | 1012.1 |
| 20260504030032 | 9 | 249 | 0.0 | 0.0 | 0.00 | 0.00 | 0.00 | 45 | 1012.1 |
| 20260504025533 | 9 | 249 | 0.0 | 0.0 | 0.00 | 0.00 | 0.00 | 45 | 1012.1 |
| 20260504025040 | 9 | 249 | 0.0 | 0.0 | 0.00 | 0.00 | 0.00 | 44 | 1012.1 |
| 20260504024549 | 9 | 249 | 0.0 | 0.0 | 0.00 | 0.00 | 0.00 | 45 | 1012.1 |
| 20260504024002 | 9 | 249 | 0.0 | 0.0 | 0.00 | 0.00 | 0.00 | 45 | 1012.2 |
| 20260504023510 | 9 | 249 | 0.0 | 0.0 | 0.00 | 0.00 | 0.00 | 45 | 1012.2 |
| 20260504023023 | 9 | 249 | 0.0 | 0.0 | 0.00 | 0.00 | 0.00 | 45 | 1012.2 |
| 20260504022531 | 10 | 249 | 0.0 | 0.0 | 0.00 | 0.00 | 0.00 | 44 | 1012.2 |
| 20260504022043 | 10 | 249 | 0.0 | 0.0 | 0.00 | 0.00 | 0.00 | 44 | 1012.2 |
| 20260504021553 | 10 | 249 | 0.0 | 1.6 | 0.00 | 0.00 | 0.00 | 43 | 1012.2 |
| 20260504021058 | 10 | 249 | 0.0 | 3.2 | 0.00 | 0.00 | 0.00 | 44 | 1012.2 |
| 20260504020558 | 10 | 249 | 0.0 | 3.2 | 0.00 | 0.00 | 0.00 | 43 | 1012.2 |
| 20260504020006 | 10 | 249 | 0.0 | 3.2 | 0.00 | 0.00 | 0.00 | 43 | 1012.1 |
| 20260504015505 | 10 | 249 | 0.0 | 3.2 | 0.00 | 0.00 | 0.00 | 43 | 1012.1 |
| 20260504015016 | 10 | 249 | 0.0 | 3.2 | 0.00 | 0.00 | 0.00 | 42 | 1012.1 |
| 20260504014510 | 10 | 249 | 0.0 | 1.6 | 0.00 | 0.00 | 0.00 | 42 | 1012.0 |
| 20260504014021 | 10 | 249 | 0.0 | 0.0 | 0.00 | 0.00 | 0.00 | 41 | 1011.9 |
| 20260504013524 | 10 | 249 | 0.0 | 0.0 | 0.00 | 0.00 | 0.00 | 40 | 1011.9 |
| 20260504013041 | 11 | 249 | 0.0 | 0.0 | 0.00 | 0.00 | 0.00 | 40 | 1011.7 |
| 20260504012546 | 11 | 249 | 0.0 | 0.0 | 0.00 | 0.00 | 0.00 | 39 | 1011.7 |
| 20260504012100 | 11 | 249 | 0.0 | 1.6 | 0.00 | 0.00 | 0.00 | 38 | 1011.7 |
| 20260504012003 | 11 | 249 | 0.0 | 1.6 | 0.00 | 0.00 | 0.00 | 38 | 1011.6 |
| 20260504011520 | 11 | 249 | 0.0 | 1.6 | 0.00 | 0.00 | 0.00 | 38 | 1011.7 |
| 20260504011023 | 11 | 249 | 0.0 | 1.6 | 0.00 | 0.00 | 0.00 | 38 | 1011.6 |
| 20260504010541 | 11 | 249 | 0.0 | 1.6 | 0.00 | 0.00 | 0.00 | 38 | 1011.5 |
| 20260504010104 | 11 | 249 | 0.0 | 0.0 | 0.00 | 0.00 | 0.00 | 37 | 1011.4 |
| 20260504005505 | 11 | 249 | 0.0 | 0.0 | 0.00 | 0.00 | 0.00 | 37 | 1011.2 |
| 20260504005014 | 11 | 249 | 0.0 | 1.6 | 0.00 | 0.00 | 0.00 | 37 | 1011.1 |
| 20260504004524 | 11 | 249 | 0.0 | 1.6 | 0.00 | 0.00 | 0.00 | 37 | 1011.1 |
| 20260504004029 | 11 | 249 | 0.0 | 4.8 | 0.00 | 0.00 | 0.00 | 36 | 1011.0 |
| 20260504003544 | 11 | 249 | 0.0 | 4.8 | 0.00 | 0.00 | 0.00 | 35 | 1011.0 |
| 20260504003048 | 11 | 257 | 0.0 | 3.2 | 0.00 | 0.00 | 0.00 | 36 | 1011.0 |
| 20260504002555 | 11 | 257 | 0.0 | 4.8 | 0.00 | 0.00 | 0.00 | 35 | 1010.9 |
| 20260504002055 | 12 | 257 | 0.0 | 4.8 | 0.00 | 0.00 | 0.00 | 35 | 1010.9 |
| 20260504001603 | 12 | 264 | 0.0 | 3.2 | 0.00 | 0.00 | 0.00 | 34 | 1010.8 |
| 20260504001502 | 12 | 264 | 0.0 | 3.2 | 0.00 | 0.00 | 0.00 | 34 | 1010.9 |
| 20260504001012 | 12 | 261 | 0.0 | 3.2 | 0.00 | 0.00 | 0.00 | 33 | 1010.7 |
| 20260504000525 | 12 | 261 | 0.0 | 3.2 | 0.00 | 0.00 | 0.00 | 33 | 1010.6 |
| 20260504000042 | 12 | 261 | 0.0 | 4.8 | 0.00 | 0.00 | 0.00 | 33 | 1010.6 |
| 20260503235549 | 12 | 259 | 1.6 | 8.0 | 0.00 | 0.00 | 0.00 | 33 | 1010.5 |
| 20260503235056 | 12 | 259 | 1.6 | 8.0 | 0.00 | 0.00 | 0.00 | 32 | 1010.4 |
| 20260503234512 | 12 | 340 | 0.0 | 4.8 | 0.00 | 0.00 | 0.00 | 32 | 1010.4 |
| 20260503234020 | 13 | 286 | 0.0 | 4.8 | 0.00 | 0.00 | 0.00 | 32 | 1010.4 |
| 20260503233531 | 13 | 284 | 0.0 | 4.8 | 0.00 | 0.00 | 0.00 | 32 | 1010.3 |
| 20260503233048 | 13 | 280 | 1.6 | 9.7 | 0.00 | 0.00 | 0.00 | 31 | 1010.2 |
| 20260503232553 | 13 | 340 | 3.2 | 14.5 | 0.00 | 0.00 | 0.00 | 30 | 1010.2 |
| 20260503232002 | 13 | 245 | 4.8 | 17.7 | 0.00 | 0.00 | 0.00 | 30 | 1010.1 |
| 20260503231508 | 13 | 304 | 4.8 | 16.1 | 0.00 | 0.00 | 0.00 | 30 | 1010.1 |
| 20260503231008 | 13 | 298 | 3.2 | 12.9 | 0.00 | 0.00 | 0.00 | 30 | 1010.2 |
| 20260503230516 | 13 | 293 | 3.2 | 12.9 | 0.00 | 0.00 | 0.00 | 30 | 1010.2 |
| 20260503230014 | 14 | 276 | 1.6 | 14.5 | 0.00 | 0.00 | 0.00 | 30 | 1010.1 |
| 20260503225520 | 14 | 291 | 6.4 | 14.5 | 0.00 | 0.00 | 0.00 | 29 | 1010.1 |
| 20260503225020 | 14 | 281 | 4.8 | 14.5 | 0.00 | 0.00 | 0.00 | 30 | 1010.1 |
| 20260503224536 | 14 | 284 | 4.8 | 14.5 | 0.00 | 0.00 | 0.00 | 30 | 1010.1 |
| 20260503224036 | 14 | 279 | 3.2 | 16.1 | 0.00 | 0.00 | 0.00 | 31 | 1010.1 |
| 20260503223548 | 14 | 268 | 4.8 | 19.3 | 0.00 | 0.00 | 0.00 | 31 | 1010.0 |
| 20260503223056 | 14 | 292 | 8.0 | 19.3 | 0.00 | 0.00 | 0.00 | 31 | 1010.1 |
| 20260503223006 | 14 | 293 | 8.0 | 19.3 | 0.00 | 0.00 | 0.00 | 31 | 1010.0 |
| 20260503222509 | 14 | 289 | 8.0 | 19.3 | 0.00 | 0.00 | 0.00 | 30 | 1009.9 |
| 20260503222021 | 14 | 290 | 4.8 | 14.5 | 0.00 | 0.00 | 0.00 | 32 | 1009.9 |
| 20260503221521 | 13 | 318 | 4.8 | 19.3 | 0.00 | 0.00 | 0.00 | 33 | 1009.8 |
| 20260503221041 | 13 | 311 | 8.0 | 19.3 | 0.00 | 0.00 | 0.00 | 32 | 1010.0 |
| 20260503220546 | 13 | 297 | 8.0 | 17.7 | 0.00 | 0.00 | 0.00 | 32 | 1009.8 |
| 20260503220106 | 13 | 357 | 4.8 | 17.7 | 0.00 | 0.00 | 0.00 | 32 | 1009.9 |
| 20260503215507 | 13 | 297 | 3.2 | 14.5 | 0.00 | 0.00 | 0.00 | 31 | 1009.9 |
| 20260503215019 | 13 | 318 | 6.4 | 20.9 | 0.00 | 0.00 | 0.00 | 32 | 1009.9 |
| 20260503214532 | 13 | 345 | 11.3 | 30.6 | 0.00 | 0.00 | 0.00 | 31 | 1009.8 |
| 20260503214039 | 13 | 303 | 14.5 | 30.6 | 0.00 | 0.00 | 0.00 | 31 | 1009.9 |
| 20260503213550 | 13 | 295 | 11.3 | 20.9 | 0.00 | 0.00 | 0.00 | 32 | 1009.8 |
| 20260503213001 | 13 | 340 | 11.3 | 27.4 | 0.00 | 0.00 | 0.00 | 32 | 1009.8 |
| 20260503212512 | 13 | 349 | 8.0 | 25.7 | 0.00 | 0.00 | 0.00 | 32 | 1009.8 |
| 20260503212024 | 13 | 335 | 9.7 | 33.8 | 0.00 | 0.00 | 0.00 | 32 | 1009.8 |
| 20260503211530 | 13 | 330 | 8.0 | 33.8 | 0.00 | 0.00 | 0.00 | 33 | 1009.8 |
| 20260503211035 | 13 | 307 | 12.9 | 29.0 | 0.00 | 0.00 | 0.00 | 31 | 1009.9 |
| 20260503210535 | 13 | 293 | 12.9 | 27.4 | 0.00 | 0.00 | 0.00 | 33 | 1009.8 |
| 20260503210055 | 13 | 316 | 9.7 | 32.2 | 0.00 | 0.00 | 0.00 | 33 | 1009.9 |
| 20260503205601 | 13 | 293 | 12.9 | 32.2 | 0.00 | 0.00 | 0.00 | 32 | 1009.8 |
| 20260503205012 | 13 | 288 | 12.9 | 38.6 | 0.00 | 0.00 | 0.00 | 33 | 1009.7 |
| 20260503204518 | 13 | 310 | 20.9 | 38.6 | 0.00 | 0.00 | 0.00 | 32 | 1009.7 |
| 20260503204031 | 13 | 335 | 9.7 | 29.0 | 0.00 | 0.00 | 0.00 | 34 | 1009.7 |
| 20260503203541 | 13 | 276 | 11.3 | 25.7 | 0.00 | 0.00 | 0.00 | 33 | 1009.7 |
| 20260503203100 | 13 | 302 | 8.0 | 19.3 | 0.00 | 0.00 | 0.00 | 33 | 1009.8 |
| 20260503202503 | 12 | 340 | 6.4 | 30.6 | 0.00 | 0.00 | 0.00 | 34 | 1009.7 |
| 20260503202016 | 12 | 335 | 9.7 | 24.1 | 0.00 | 0.00 | 0.00 | 35 | 1009.8 |
| 20260503201533 | 12 | 320 | 8.0 | 25.7 | 0.00 | 0.00 | 0.00 | 34 | 1009.8 |
| 20260503201039 | 12 | 301 | 12.9 | 32.2 | 0.00 | 0.00 | 0.00 | 34 | 1009.8 |
| 20260503200545 | 12 | 284 | 12.9 | 32.2 | 0.00 | 0.00 | 0.00 | 34 | 1009.8 |
| 20260503200052 | 12 | 340 | 14.5 | 30.6 | 0.00 | 0.00 | 0.00 | 34 | 1009.9 |
| 20260503195552 | 12 | 300 | 12.9 | 29.0 | 0.00 | 0.00 | 0.00 | 35 | 1009.9 |
| 20260503195057 | 12 | 311 | 12.9 | 38.6 | 0.00 | 0.00 | 0.00 | 35 | 1009.8 |